VZLUSAT-1 (42790 NORAD) Tracking and Keplerian Element Data

This shows tracking and keplerian element data for the satellite.

Feedback or suggestion? Click here.




ElementValue
Catalog42790
NameVZLUSAT-1
Epoch Orbit10147
Epoch Day111.74179163
Epoch Year2019
RAAN171.4031
Inclination97.3587
Eccentricity0.0012806
Argument of Perigee75.9902
Mean Anonmoly284.2758
Mean Motion15.23253079
Decay Rate1.56E-05
L11 42790U 17036AB 19111.74179163 .00001560 00000-0 68684-4 0 9998
L22 42790 97.3587 171.4031 0012806 75.9902 284.2758 15.23253079101475

Live tracking and technical data element details for VZLUSAT-1 (NORAD 42790). VZLUSAT-1 can be tracked NOW for your location showing map with azimuth and elevation plus other details from your city location.

Track the satellite on the map from your city or location and see movement details for azimuth, elevation, latitude, longitude, range, height, and movement on the map or in text.







IsCatalogInMostPopularTable: catalog: 42790, numindb: 193
Update: records affected: 1



GetName: 42790 VZLUSAT-1

Hit Count: updated at: Tue, 23 Apr 2019 06:28:35 GMT